Temp
83 86 80 80 79 80 80 80 80 80 79 79 79 79 79 79 79 79 79 79 80 80 81 81 80 80 80 80 80 80 80 80 81 81 81 81 80 80 81 80 82 87 80
85 86 79 79 79 80 80 80 80 80 80 80 80 79 79 79 79 79 79 79 80 81 81 81 80 80 80 80 80 80 80 80 80 80 81 81 81 81 80 81 81 83 79
84 85 83 79 80 80 80 80 79 79 79 79 79 79 79 79 79 79 79 79 80 81 81 81 80 80 80 80 80 80 80 79 80 80 80 88 88 81 80 80 80 80 80
84 84 84 79 80 79 80 79 79 79 79 79 79 79 79 79 79 79 79 80 80 80 81 80 80 80 80 80 80 80 80 80 80 79 89 88 88 80 80 80 80 80 79
82 83 83 79 79 79 80 79 79 79 79 79 79 79 79 79 79 79 79 80 80 80 81 80 80 80 80 80 80 80 80 80 79 82 86 87 88 82 79 80 80 79 80
83 84 81 79 79 79 79 79 79 79 79 79 79 79 78 78 78 79 79 79 80 80 80 80 79 79 80 80 80 79 79 79 81 87 86 83 86 79 79 79 79 79 78
84 84 85 79 79 79 79 79 79 79 78 79 79 79 78 78 78 78 79 79 80 80 80 79 79 79 79 80 80 80 80 78 86 88 87 86 86 78 79 79 79 79 79
84 84 85 80 79 79 79 79 78 78 78 79 79 78 78 78 78 78 78 79 79 79 79 79 79 78 78 79 79 80 79 80 86 86 87 89 78 78 79 78 78 78 78
85 84 86 86 82 78 78 78 78 78 78 78 78 78 78 78 78 78 78 78 78 78 78 78 78 78 78 79 79 79 79 78 91 89 87 89 77 78 78 78 78 78 78
84 84 85 85 86 86 85 78 78 78 78 78 78 78 78 78 78 78 77 78 78 78 78 78 78 78 78 78 79 79 78 78 91 90 89 87 77 78 78 78 78 78 78
80 82 84 84 85 86 87 84 79 78 78 78 79 78 78 86 84 84 79 78 79 78 78 78 78 78 78 79 78 79 79 90 91 89 89 77 77 78 78 78 78 78 78
79 80 83 82 84 84 84 84 84 85 86 85 85 84 86 83 84 86 82 78 79 79 79 78 78 78 79 89 89 80 89 89 90 89 89 77 77 78 78 78 78 78 77
81 80 81 81 81 83 84 83 84 84 84 84 83 83 83 84 84 86 86 86 84 80 87 84 84 88 85 88 88 88 88 88 90 90 84 76 77 78 78 78 77 77 77
80 80 82 81 80 80 84 82 84 83 83 84 84 83 82 83 83 83 86 86 84 86 84 84 86 84 84 85 87 88 87 88 89 89 86 77 76 78 78 78 77 77 77
81 80 80 79 78 80 79 82 82 82 82 84 84 83 84 83 81 83 84 85 85 86 86 85 85 84 84 84 87 86 86 86 86 87 87 76 76 77 78 79 78 77 77
82 81 82 80 78 79 78 79 80 81 82 82 83 83 81 82 81 82 82 84 84 85 86 86 86 85 86 87 86 85 85 87 86 85 87 85 76 76 77 78 79 78 77
83 83 78 78 79 76 77 78 80 82 83 82 82 80 80 80 79 80 83 83 84 84 82 83 84 84 84 86 85 86 86 84 85 83 84 85 84 75 76 77 78 79 78
84 81 80 83 81 77 77 78 80 81 82 82 83 83 81 81 80 80 83 83 84 82 84 84 83 84 84 84 84 85 86 85 85 84 84 84 84 85 78 76 77 78 78
82 82 80 80 82 78 77 78 78 78 78 82 82 83 82 82 82 80 83 84 82 84 84 84 84 82 83 83 84 84 84 84 85 86 84 82 83 83 84 78 76 76 77
83 82 81 80 79 78 78 76 79 79 79 81 81 82 82 82 82 81 83 81 82 84 83 83 80 82 81 84 86 86 84 84 84 83 83 84 84 83 83 82 82 81 75
84 81 79 78 77 77 77 77 78 78 79 79 80 80 81 82 82 80 83 82 81 81 82 81 77 69 66 77 77 80 81 82 81 83 83 83 82 82 82 82 82 84 83
83 80 79 78 78 76 79 79 82 81 82 82 82 80 80 81 82 82 81 82 81 81 78 75 69 66 66 66 67 68 71 75 79 80 80 76 76 78 81 80 80 80 80
82 80 80 78 78 77 78 78 78 78 78 78 80 80 81 80 82 81 81 81 80 78 75 72 66 66 64 65 65 63 60 61 67 76 76 77 73 71 76 76 78 78 77
86 84 81 78 76 77 77 76 75 77 75 78 81 83 82 80 80 81 79 79 78 75 74 71 69 66 65 64 64 64 64 65 62 61 72 76 76 73 69 68 70 71 71
87 87 82 79 77 77 77 77 77 75 80 80 79 78 77 77 78 80 79 78 77 74 73 69 69 67 68 67 65 64 63 63 63 62 60 64 70 73 72 70 71 72 69
82 84 84 80 78 78 77 76 75 76 76 77 77 77 76 74 75 74 75 72 71 72 71 69 69 67 68 66 66 64 64 62 62 61 60 61 61 63 65 65 68 68 65
MSLP
1014.04 1014.44 1015.30 1015.53 1015.80 1015.91 1016.01 1015.99 1016.06 1016.14 1016.28 1016.41 1016.43 1016.46 1016.48 1016.48 1016.53 1016.63 1016.67 1016.74 1016.78 1016.79 1016.80 1016.94 1017.08 1017.17 1017.20 1017.26 1017.31 1017.30 1017.33 1017.35 1017.31 1017.20 1017.21 1017.24 1017.25 1017.16 1017.18 1017.22 1017.02 1016.80 1017.37
1013.80 1014.45 1015.29 1015.57 1015.83 1015.91 1016.03 1016.10 1016.19 1016.25 1016.35 1016.40 1016.44 1016.56 1016.62 1016.68 1016.71 1016.80 1016.81 1016.89 1016.90 1016.93 1016.97 1017.03 1017.10 1017.19 1017.22 1017.30 1017.43 1017.53 1017.59 1017.60 1017.61 1017.54 1017.45 1017.38 1017.32 1017.34 1017.32 1017.37 1017.28 1017.45 1017.67
1014.06 1014.61 1015.21 1015.56 1015.83 1016.00 1016.11 1016.14 1016.30 1016.39 1016.42 1016.64 1016.77 1016.89 1016.98 1016.96 1016.95 1017.01 1017.09 1017.15 1017.18 1017.15 1017.20 1017.19 1017.25 1017.29 1017.33 1017.42 1017.52 1017.69 1017.74 1017.77 1017.79 1017.78 1017.66 1017.07 1017.09 1017.55 1017.46 1017.46 1017.39 1017.54 1017.73
1014.26 1014.74 1015.18 1015.69 1015.94 1016.14 1016.17 1016.37 1016.48 1016.60 1016.77 1016.86 1016.99 1017.11 1017.22 1017.22 1017.18 1017.22 1017.22 1017.29 1017.34 1017.38 1017.48 1017.53 1017.59 1017.61 1017.61 1017.60 1017.60 1017.64 1017.63 1017.72 1017.72 1017.77 1017.32 1017.33 1017.22 1017.87 1017.81 1017.73 1017.62 1017.72 1017.91
1014.54 1015.02 1015.37 1015.83 1016.04 1016.19 1016.29 1016.52 1016.74 1016.82 1016.98 1017.05 1017.17 1017.26 1017.37 1017.44 1017.43 1017.44 1017.37 1017.40 1017.45 1017.56 1017.65 1017.87 1017.98 1018.00 1018.00 1017.98 1017.80 1017.77 1017.73 1017.62 1017.76 1017.60 1017.47 1017.50 1017.49 1018.03 1018.18 1018.14 1018.10 1018.06 1017.89
1014.73 1015.05 1015.57 1015.97 1016.12 1016.22 1016.39 1016.61 1016.76 1016.92 1017.13 1017.22 1017.36 1017.40 1017.52 1017.61 1017.74 1017.73 1017.63 1017.58 1017.60 1017.71 1017.81 1017.93 1018.01 1018.01 1018.10 1018.12 1018.06 1018.08 1018.05 1017.98 1017.81 1017.49 1017.56 1017.84 1017.80 1018.33 1018.44 1018.55 1018.49 1018.35 1018.26
1014.70 1015.09 1015.44 1015.97 1016.22 1016.35 1016.48 1016.61 1016.82 1017.09 1017.22 1017.35 1017.50 1017.54 1017.72 1017.79 1017.94 1018.00 1017.99 1017.95 1017.88 1017.97 1018.06 1018.18 1018.20 1018.18 1018.10 1018.04 1018.07 1018.20 1018.26 1018.43 1017.88 1017.62 1017.73 1017.83 1017.78 1018.31 1018.44 1018.62 1018.69 1018.74 1018.64
1014.72 1015.10 1015.45 1015.98 1016.24 1016.39 1016.50 1016.69 1016.95 1017.16 1017.31 1017.45 1017.62 1017.71 1017.80 1017.90 1018.02 1018.07 1018.16 1018.20 1018.23 1018.19 1018.19 1018.28 1018.34 1018.33 1018.33 1018.25 1018.16 1018.17 1018.27 1018.28 1018.02 1017.94 1017.90 1017.87 1018.42 1018.50 1018.44 1018.59 1018.73 1018.77 1018.72
1014.90 1015.23 1015.38 1015.65 1016.11 1016.37 1016.54 1016.83 1017.08 1017.18 1017.33 1017.53 1017.66 1017.79 1017.88 1018.01 1018.21 1018.23 1018.20 1018.24 1018.37 1018.45 1018.48 1018.42 1018.40 1018.42 1018.47 1018.46 1018.39 1018.32 1018.26 1018.29 1017.78 1018.02 1018.07 1018.05 1018.76 1018.73 1018.72 1018.69 1018.77 1018.82 1018.89
1015.14 1015.29 1015.45 1015.63 1015.77 1015.99 1016.33 1016.89 1017.08 1017.19 1017.36 1017.57 1017.69 1017.80 1017.91 1018.09 1018.25 1018.31 1018.36 1018.30 1018.34 1018.42 1018.51 1018.59 1018.58 1018.51 1018.50 1018.47 1018.44 1018.39 1018.38 1018.34 1017.79 1017.92 1018.12 1018.13 1018.72 1018.72 1018.74 1018.81 1018.90 1018.95 1019.00
1015.18 1015.30 1015.41 1015.56 1015.81 1015.93 1016.12 1016.64 1017.13 1017.25 1017.41 1017.55 1017.64 1017.84 1017.96 1017.76 1017.96 1018.02 1018.32 1018.41 1018.48 1018.60 1018.63 1018.58 1018.57 1018.55 1018.55 1018.56 1018.46 1018.45 1018.49 1017.80 1017.82 1018.02 1018.21 1018.83 1018.70 1018.69 1018.79 1018.84 1018.94 1018.99 1019.07
1014.74 1015.12 1015.38 1015.56 1015.67 1015.96 1016.28 1016.47 1016.72 1016.85 1017.03 1017.18 1017.30 1017.54 1017.61 1017.94 1018.02 1017.98 1018.22 1018.41 1018.47 1018.63 1018.74 1018.71 1018.67 1018.60 1018.52 1018.03 1018.01 1018.39 1017.87 1017.89 1017.97 1018.15 1018.24 1018.87 1018.92 1018.75 1018.77 1018.97 1019.05 1019.07 1019.16
1014.35 1015.03 1015.27 1015.50 1015.74 1015.79 1015.98 1016.47 1016.64 1016.82 1016.99 1017.24 1017.42 1017.50 1017.63 1017.76 1017.90 1017.88 1017.92 1018.00 1018.19 1018.52 1018.34 1018.54 1018.51 1018.26 1018.22 1017.99 1017.90 1017.92 1017.90 1017.86 1017.89 1018.16 1018.54 1019.02 1018.96 1019.03 1019.02 1019.00 1019.10 1019.17 1019.27
1013.94 1014.44 1014.87 1015.16 1015.51 1015.89 1016.02 1016.34 1016.47 1016.70 1016.91 1016.99 1017.15 1017.44 1017.53 1017.50 1017.53 1017.55 1017.42 1017.55 1017.84 1017.84 1018.08 1018.33 1018.24 1018.32 1018.27 1018.18 1017.96 1017.78 1017.87 1017.85 1017.89 1018.14 1018.43 1018.99 1019.17 1019.03 1019.14 1019.20 1019.20 1019.28 1019.41
1013.62 1014.01 1014.38 1014.86 1015.29 1015.63 1016.09 1016.12 1016.35 1016.43 1016.64 1016.66 1016.97 1017.20 1017.26 1017.29 1017.43 1017.52 1017.52 1017.54 1017.54 1017.58 1017.60 1017.70 1017.84 1018.02 1017.99 1017.97 1017.82 1017.81 1017.76 1017.88 1018.09 1018.20 1018.37 1018.95 1019.11 1019.16 1019.11 1019.17 1019.27 1019.32 1019.40
1013.01 1013.41 1014.09 1014.61 1015.16 1015.47 1015.70 1015.96 1016.09 1016.32 1016.45 1016.76 1016.76 1016.85 1017.20 1017.24 1017.38 1017.42 1017.46 1017.47 1017.44 1017.47 1017.39 1017.37 1017.27 1017.39 1017.45 1017.48 1017.43 1017.71 1017.72 1017.71 1017.95 1018.19 1018.20 1018.37 1018.98 1019.14 1019.06 1018.91 1018.99 1019.28 1019.44
1012.42 1013.04 1013.71 1014.28 1014.82 1015.31 1015.54 1015.82 1016.02 1016.19 1016.41 1016.57 1016.66 1016.96 1017.06 1017.09 1017.20 1017.34 1017.25 1017.25 1017.21 1017.38 1017.50 1017.40 1017.34 1017.37 1017.33 1017.25 1017.30 1017.27 1017.43 1017.70 1017.77 1018.01 1018.13 1018.20 1018.30 1018.90 1018.98 1018.96 1018.98 1018.96 1019.11
1012.15 1012.58 1013.37 1013.82 1014.30 1015.01 1015.37 1015.58 1015.83 1016.06 1016.22 1016.27 1016.38 1016.48 1016.70 1016.93 1017.17 1017.24 1017.04 1016.93 1017.03 1017.30 1017.26 1017.22 1017.28 1017.18 1017.13 1017.09 1017.02 1017.03 1017.04 1017.22 1017.34 1017.57 1017.79 1017.85 1018.03 1018.01 1018.74 1019.01 1019.03 1019.14 1019.16
1011.93 1012.45 1013.10 1013.58 1013.83 1014.40 1015.02 1015.39 1015.67 1015.85 1016.16 1016.05 1016.19 1016.20 1016.29 1016.60 1016.79 1017.06 1016.79 1016.63 1017.03 1016.99 1017.01 1017.01 1016.99 1017.19 1016.97 1016.94 1016.90 1016.96 1016.91 1016.84 1016.77 1016.85 1017.23 1017.60 1017.71 1017.93 1017.84 1018.21 1018.57 1018.65 1018.88
1011.85 1012.41 1012.85 1013.35 1013.82 1014.32 1014.67 1015.08 1015.35 1015.55 1015.61 1015.75 1015.81 1015.87 1016.02 1015.98 1016.22 1016.55 1016.39 1016.48 1016.50 1016.41 1016.55 1016.79 1017.10 1017.15 1017.43 1017.11 1016.67 1016.30 1016.41 1016.39 1016.50 1016.51 1016.65 1016.97 1017.08 1017.33 1017.61 1017.90 1018.00 1018.20 1018.57
1011.41 1011.88 1012.34 1012.74 1012.98 1013.55 1014.10 1014.53 1014.75 1014.48 1014.67 1014.87 1014.90 1014.89 1014.92 1015.14 1015.46 1015.78 1015.65 1015.58 1015.81 1015.91 1015.85 1016.44 1017.19 1017.81 1017.98 1017.99 1017.67 1016.59 1016.22 1016.17 1016.15 1016.07 1015.95 1016.15 1016.40 1016.81 1017.01 1017.33 1017.64 1017.58 1017.68
1010.17 1010.61 1011.24 1011.94 1012.53 1013.08 1013.52 1013.64 1013.72 1013.94 1013.97 1014.09 1014.06 1014.05 1014.26 1014.34 1014.50 1014.68 1014.67 1014.64 1015.08 1015.26 1015.78 1016.43 1016.91 1017.20 1017.78 1018.13 1018.09 1017.33 1016.40 1015.88 1015.51 1015.77 1015.90 1016.13 1016.56 1016.57 1016.55 1016.93 1017.11 1017.34 1017.46
1009.53 1009.84 1010.34 1010.63 1011.41 1012.12 1012.49 1012.95 1013.20 1013.47 1013.68 1013.54 1013.02 1013.01 1013.23 1013.57 1013.70 1013.88 1013.84 1014.04 1014.27 1014.65 1015.01 1015.62 1016.16 1016.64 1017.22 1017.57 1017.70 1017.72 1017.06 1016.16 1016.04 1015.81 1015.82 1015.93 1016.28 1016.44 1016.58 1016.78 1016.74 1017.04 1017.24
1008.09 1008.48 1008.95 1009.39 1010.24 1010.36 1010.89 1011.42 1011.93 1011.89 1011.95 1011.73 1011.97 1012.18 1012.33 1012.61 1012.75 1012.91 1013.33 1013.48 1013.95 1014.21 1014.18 1014.76 1015.49 1015.82 1016.25 1016.86 1016.99 1017.00 1016.75 1016.78 1016.55 1016.26 1015.72 1015.80 1015.91 1016.17 1016.43 1016.66 1016.73 1016.90 1017.11
1007.94 1007.94 1008.29 1008.53 1009.19 1009.52 1010.08 1010.55 1010.95 1011.33 1011.37 1011.70 1011.94 1011.99 1012.11 1012.41 1012.43 1012.50 1012.59 1012.88 1013.59 1014.52 1015.03 1014.59 1014.79 1015.26 1015.43 1016.11 1016.03 1016.04 1016.30 1016.21 1016.34 1016.25 1015.96 1015.78 1015.96 1016.40 1016.57 1016.67 1016.50 1016.58 1017.11
1008.42 1008.14 1008.08 1008.47 1008.93 1009.38 1009.69 1010.08 1010.45 1010.78 1011.25 1011.52 1011.65 1011.74 1011.81 1011.96 1011.92 1011.84 1011.82 1012.07 1012.36 1012.75 1013.75 1014.63 1014.67 1014.64 1014.69 1014.52 1015.06 1015.19 1015.08 1015.21 1015.32 1015.72 1015.77 1015.79 1016.08 1016.59 1016.95 1017.27 1017.21 1017.16 1017.42
Wind_Speed
10 14 15 15 14 14 15 14 14 14 14 14 13 12 11 10 9 9 8 7 10 10 10 11 11 10 10 11 11 10 10 9 9 11 12 10 8 10 11 10 6 10 10
15 15 15 15 15 15 15 15 14 13 12 12 12 13 12 11 9 8 8 8 9 10 10 10 10 10 10 10 10 10 9 9 9 10 9 10 9 10 11 10 9 10 10
17 14 15 15 14 15 15 14 14 14 13 12 11 11 11 10 9 8 8 8 9 9 9 9 9 9 8 8 8 8 6 5 7 8 4 5 8 8 10 10 11 11 12
15 14 14 16 15 15 15 14 14 14 13 12 11 10 10 9 9 9 9 9 9 9 10 8 7 7 6 6 5 5 5 7 7 5 3 4 5 7 7 9 10 11 11
14 13 13 16 15 15 15 14 13 13 13 12 11 10 9 8 8 9 8 9 7 8 10 7 6 6 5 3 1 6 6 10 9 5 5 4 2 7 5 6 9 10 7
14 13 14 15 14 15 14 14 13 13 13 11 10 10 9 8 7 7 8 9 8 8 9 8 7 7 5 5 4 7 7 9 6 5 5 7 3 7 5 5 5 8 8
14 12 14 14 14 14 14 14 13 12 11 10 10 10 10 9 8 6 6 7 8 8 8 6 5 4 4 4 3 5 6 7 3 4 4 3 6 4 6 6 4 5 6
14 12 12 14 14 13 13 12 11 11 10 9 9 9 10 9 9 8 7 7 6 7 7 6 4 3 2 3 3 4 9 4 4 3 3 2 5 3 6 7 5 5 5
13 11 11 12 12 12 11 11 10 10 9 8 8 8 9 8 8 7 8 8 6 5 5 5 4 2 3 4 4 3 6 4 2 1 2 1 4 1 3 6 6 5 6
11 11 10 10 11 10 10 10 10 9 9 8 8 8 8 7 7 7 6 7 7 7 6 5 4 2 1 1 1 1 5 5 0 3 2 3 0 1 3 5 6 6 7
10 11 10 11 10 9 9 9 10 10 9 8 8 7 7 4 5 6 6 5 6 6 5 4 4 3 1 2 2 3 6 3 2 0 2 2 2 2 4 5 5 6 7
15 13 12 11 11 10 8 9 9 8 8 7 7 6 4 4 3 2 3 3 4 5 5 4 3 3 5 3 3 4 4 3 2 1 0 1 4 3 3 4 4 4 6
15 12 13 12 11 11 9 7 5 5 5 6 7 6 4 3 3 3 3 3 3 5 4 4 4 3 4 3 3 3 4 4 2 1 3 2 4 2 1 5 5 5 5
17 15 15 14 12 11 7 7 7 6 6 6 7 7 5 4 4 3 3 3 4 3 5 5 4 4 5 5 5 6 6 5 3 2 2 4 5 4 4 5 5 5 5
16 16 16 15 13 11 11 8 8 8 7 8 7 8 6 5 4 4 3 4 3 3 3 4 5 4 5 6 5 5 6 6 6 3 2 5 7 6 5 7 6 6 7
15 16 16 16 14 12 12 12 9 8 8 7 7 8 9 6 5 5 5 5 5 4 5 5 4 4 4 5 4 4 6 6 7 5 4 4 8 9 9 9 8 8 9
16 14 17 16 14 14 14 11 9 8 8 8 8 9 10 9 8 7 6 6 6 5 6 6 6 5 5 5 6 5 6 7 7 7 6 5 6 11 11 11 10 10 11
14 15 14 13 15 15 13 10 9 8 8 8 8 8 11 11 9 8 7 7 6 5 5 6 5 5 6 5 5 6 6 7 9 9 8 7 6 6 10 12 12 11 11
15 13 13 14 16 16 14 10 10 9 8 8 8 8 10 11 11 9 8 8 7 6 7 7 6 6 6 6 7 6 7 7 9 9 11 11 10 8 6 11 13 13 13
13 13 12 11 13 12 9 9 8 9 9 9 9 9 11 10 12 10 9 10 8 8 8 7 7 5 6 7 8 7 8 8 7 8 10 10 10 11 9 9 9 10 13
13 13 14 14 14 11 10 9 10 12 11 10 11 14 14 13 13 12 10 11 10 10 10 7 1 3 3 8 9 9 8 9 9 9 7 8 10 11 11 10 8 7 7
16 15 15 15 13 13 10 8 7 7 9 10 10 12 15 15 14 13 13 11 11 10 9 7 4 4 2 2 4 4 6 6 6 8 7 7 10 8 11 12 11 10 8
15 16 15 16 15 14 14 9 7 6 4 7 11 12 13 15 15 14 14 13 11 10 9 10 7 7 4 4 7 3 2 4 1 1 5 5 7 7 8 9 11 10 9
16 15 16 16 16 16 17 14 15 12 12 11 10 9 10 13 14 13 13 11 10 8 10 9 8 6 6 8 4 6 3 1 2 3 3 2 2 4 6 4 5 7 6
11 10 13 14 15 15 15 16 14 14 11 8 6 8 8 8 9 10 10 9 8 6 9 9 11 9 7 8 9 3 7 6 4 6 5 2 2 1 1 0 2 3 3
11 9 6 9 10 12 14 16 14 14 12 8 6 5 5 5 6 8 9 8 9 8 8 7 7 6 8 8 7 9 9 5 8 6 5 2 3 2 3 3 3 2 1
Wind_Direction
157 148 158 146 144 143 143 134 129 121 119 115 111 112 112 109 109 114 117 108 116 114 114 104 99 95 89 85 88 84 77 71 73 83 95 93 80 79 74 81 124 104 112
147 152 151 147 147 144 143 136 129 123 117 113 115 126 127 123 121 122 120 105 132 125 121 113 108 104 103 102 98 89 81 75 69 73 83 99 83 86 88 87 78 95 106
145 148 154 149 151 146 142 135 133 121 123 118 119 117 114 112 112 139 123 116 131 130 120 120 116 114 113 105 99 94 94 83 89 82 82 90 94 100 109 109 107 113 120
145 147 154 155 154 151 144 135 131 129 123 121 118 113 113 116 117 116 126 127 124 138 124 114 109 110 112 118 127 140 145 131 121 116 107 85 100 101 106 112 115 113 111
147 150 151 157 157 153 144 140 135 130 129 127 124 122 120 118 118 116 121 126 128 110 110 100 85 76 82 65 134 171 142 145 118 136 103 84 49 92 100 110 124 124 142
151 154 150 159 157 154 148 140 138 134 133 134 132 128 119 114 106 111 122 124 130 121 118 119 110 110 105 62 77 131 130 121 142 111 115 111 103 86 113 81 98 119 125
154 156 157 162 160 158 152 146 143 139 139 138 137 128 116 111 104 99 100 115 127 129 130 132 116 108 112 104 92 132 121 86 78 81 83 105 114 113 114 107 107 120 131
156 160 158 163 164 163 157 148 149 144 144 146 141 129 120 115 106 101 97 100 109 122 134 137 121 118 117 79 54 145 118 142 156 96 72 84 74 123 130 129 131 135 142
161 165 169 166 168 167 159 155 160 153 157 157 144 140 132 123 112 108 107 108 102 103 111 127 123 112 81 81 60 99 133 147 165 80 50 16 82 296 145 150 159 151 144
168 173 174 172 172 173 164 169 173 168 174 170 159 156 141 134 124 118 122 115 117 117 116 121 122 119 100 93 91 134 144 155 286 7 16 59 68 233 201 190 172 165 154
181 184 184 178 178 178 171 170 184 184 189 183 177 167 158 148 146 151 90 113 118 125 130 142 144 159 198 213 254 222 199 223 188 60 341 76 200 236 230 192 192 178 167
189 192 192 188 185 181 180 186 189 185 188 194 183 179 180 167 169 158 131 143 144 137 142 168 176 181 216 209 201 207 240 217 223 252 13 178 272 245 231 203 181 181 163
193 195 198 193 192 192 192 188 192 193 190 198 200 199 187 199 191 197 180 165 163 163 166 182 181 219 246 249 242 256 267 223 228 255 83 229 246 265 146 167 168 168 163
195 197 196 201 197 200 196 197 199 199 196 200 202 205 206 216 219 232 232 207 199 191 174 186 199 212 240 244 266 258 245 228 219 213 140 225 257 225 208 181 158 148 154
201 201 203 199 202 199 206 203 207 208 204 205 203 208 212 217 233 248 258 260 262 258 241 217 198 205 220 230 245 240 230 223 220 218 232 211 224 236 214 200 193 182 167
205 205 204 206 204 202 209 212 210 212 211 212 211 214 214 223 230 244 251 258 260 256 260 259 255 251 231 238 237 235 226 221 222 221 220 201 225 228 223 215 209 200 185
209 202 204 204 202 208 212 214 218 220 216 219 224 220 223 223 222 238 247 255 257 259 264 263 260 250 245 237 244 233 228 224 222 219 224 231 202 217 231 224 208 213 200
218 207 205 202 202 208 215 215 221 223 224 226 226 225 227 232 233 235 245 254 263 255 253 258 257 249 236 229 239 239 234 231 230 225 227 224 223 232 202 225 224 219 216
221 216 210 206 210 208 212 219 224 225 230 232 234 234 230 232 236 239 245 254 257 261 255 260 248 249 237 240 241 239 241 243 236 229 232 227 225 225 224 190 217 220 222
227 226 226 215 218 210 208 212 225 229 229 230 232 234 234 231 231 233 243 252 247 246 247 249 258 248 287 284 263 245 239 239 241 230 231 230 232 226 222 232 210 216 223
229 223 219 214 207 195 202 211 224 226 221 225 227 226 226 226 228 227 240 239 234 237 236 241 215 49 325 309 285 252 250 240 237 241 238 244 235 228 224 220 226 232 207
220 215 215 218 210 207 211 220 225 218 230 231 228 231 229 229 229 230 230 234 233 230 219 197 161 143 180 194 274 277 260 232 242 245 238 237 236 238 229 224 222 223 233
222 219 215 211 205 208 214 209 211 211 222 222 226 230 228 228 231 232 231 236 227 221 206 192 184 180 169 197 217 237 234 232 327 219 229 229 224 216 230 232 227 227 225
228 222 210 206 199 206 197 206 211 215 217 229 237 236 229 221 226 228 236 237 236 223 206 192 182 191 170 216 201 219 245 357 188 279 210 201 235 226 218 218 225 225 219
304 258 223 212 205 207 202 207 208 217 230 235 230 232 221 230 228 232 233 241 243 240 241 209 189 189 201 224 223 201 215 212 203 225 239 200 114 67 15 280 215 195 207
13 356 285 233 220 216 210 210 211 221 220 220 218 215 200 204 206 207 202 186 195 197 224 226 218 202 211 216 217 207 209 206 209 199 206 179 153 88 35 357 333 39 47